Wind_Speed
41 40 39 38 38 40 41 43 47 50 52 54 57 59 62 64 66 67 68 67 65 64 65 65 65 64 64 64 65 66 68 69 69 68 70 72 72 72 70 68 65 61 58
43 42 40 39 41 43 44 46 49 52 54 57 60 62 64 66 67 67 66 65 64 64 65 64 63 62 62 64 65 66 68 70 70 69 67 65 62 60 57 53 50 47 43
43 41 40 41 43 45 47 49 51 54 56 59 61 64 65 66 66 64 63 63 63 63 62 61 61 62 62 63 65 66 66 66 65 62 56 51 46 44 41 38 36 34 32
41 41 43 45 46 48 49 51 53 56 58 60 62 63 63 63 62 61 62 62 61 60 60 60 61 61 62 62 63 62 60 57 53 48 42 37 34 32 30 27 26 26 26
44 45 47 48 49 50 51 53 54 57 59 60 60 60 59 60 60 61 61 60 59 59 59 59 60 60 60 59 57 53 49 44 38 33 29 26 25 24 23 21 20 21 22
47 46 47 48 49 50 51 53 54 56 57 57 57 57 58 58 59 59 59 58 57 57 57 57 57 56 53 50 46 43 37 31 26 23 21 21 20 19 19 18 17 17 18
47 46 47 47 48 49 51 52 53 54 54 55 56 56 57 57 56 56 56 56 56 55 54 53 50 47 43 39 34 30 26 23 21 19 18 18 18 18 17 17 16 15 15
47 46 46 46 47 49 50 50 51 52 52 53 54 54 54 54 54 54 54 54 53 51 48 45 41 38 32 27 23 21 20 20 19 19 19 18 18 18 17 17 16 16 15
45 45 45 46 47 48 48 48 49 49 50 51 51 51 51 52 52 51 51 50 47 44 40 36 32 26 21 18 17 17 18 19 20 20 20 20 20 20 20 19 18 17 16
43 43 44 45 46 46 46 47 47 48 48 49 49 49 49 49 49 47 45 42 38 36 32 30 24 17 15 15 15 16 18 19 20 21 21 21 20 20 19 18 17 16 16
42 43 43 43 44 44 45 45 46 46 47 47 47 47 47 45 42 39 35 32 30 29 27 24 17 13 13 14 16 17 19 19 20 20 19 18 16 16 16 16 15 14 13
41 41 41 41 42 42 43 44 44 45 45 45 44 42 39 36 32 29 28 27 26 24 21 16 12 11 12 14 16 17 18 19 19 17 16 15 15 16 17 17 16 15 13
38 38 38 39 40 41 42 43 43 42 41 39 37 34 31 28 26 25 25 24 21 18 13 9 8 9 12 14 15 16 17 17 16 15 15 16 16 17 18 18 18 18 17
35 36 37 38 40 40 40 40 39 36 34 31 29 28 27 25 25 24 22 18 14 10 6 4 5 8 11 12 13 15 15 14 14 15 15 16 17 18 18 18 19 19 19
35 36 37 38 38 37 35 33 31 29 27 27 26 25 24 22 21 19 16 11 6 3 1 1 5 8 10 11 12 13 13 14 15 15 15 17 18 19 19 19 19 19 19
34 35 34 33 32 30 28 27 26 25 25 24 22 21 19 18 16 13 8 3 4 4 3 3 6 8 9 10 12 12 13 14 15 15 15 16 17 18 19 20 20 20 20
31 30 29 27 26 25 23 23 22 21 19 18 17 15 14 11 8 3 3 7 8 6 5 5 7 8 9 11 12 14 16 17 17 18 18 19 20 21 22 22 22 21 21
27 26 24 23 22 20 19 17 16 14 13 12 12 11 8 4 3 7 10 11 9 7 6 7 8 9 10 12 14 16 18 20 21 21 21 22 23 25 26 27 26 25 24
22 21 20 18 16 15 13 11 9 9 8 8 8 7 6 7 10 12 13 11 9 8 8 8 9 11 12 14 16 18 20 22 23 24 24 25 26 27 29 30 30 30 29
19 17 15 13 11 9 8 6 5 5 5 6 7 8 10 12 14 14 13 11 10 9 9 10 11 12 14 16 17 19 20 21 22 23 24 25 27 28 30 31 31 31 31
17 14 11 9 8 6 6 5 5 6 8 9 11 13 14 15 15 14 13 12 11 11 11 11 12 13 14 16 17 18 19 20 21 22 23 24 25 27 28 29 31 31 30
14 12 10 8 8 7 8 9 10 11 12 14 15 16 16 15 15 14 13 13 12 13 13 12 12 13 14 15 15 16 16 17 18 20 21 22 24 25 27 28 28 29 29
15 13 11 11 11 12 13 13 14 15 16 17 17 17 16 15 15 14 14 13 13 13 13 13 13 13 14 14 14 14 15 16 17 18 20 21 22 24 25 26 26 27 28
17 16 15 15 15 16 16 17 17 17 18 18 18 17 16 15 14 13 13 13 13 13 13 13 13 13 13 13 12 13 14 15 16 17 18 20 21 22 23 24 24 25 25
22 21 20 19 18 18 19 19 19 19 18 18 17 16 15 14 13 12 12 12 12 13 13 13 13 13 13 12 12 12 13 14 16 17 18 19 19 20 21 21 21 22 22
25 24 23 21 20 19 19 19 18 18 17 17 16 15 14 13 12 11 10 10 11 11 12 12 12 12 13 12 13 13 14 14 15 15 16 17 18 18 18 18 19 19 20
Wind_Direction
290 292 294 296 298 297 296 295 295 295 297 298 299 299 300 300 300 301 301 302 303 302 302 302 302 302 300 299 298 297 296 295 294 293 291 290 290 289 289 289 289 288 286
288 291 293 294 295 296 295 295 295 296 296 297 297 298 298 298 299 300 301 302 302 303 304 304 303 302 301 300 299 298 297 297 296 295 295 294 293 292 292 291 290 290 288
286 289 292 294 295 295 295 295 295 295 296 296 296 297 297 298 299 300 301 302 303 304 305 304 303 302 302 301 300 300 300 300 300 301 300 299 297 295 295 295 295 294 291
287 291 294 295 295 295 295 295 295 295 295 296 296 296 297 298 299 300 302 303 305 305 304 304 303 303 302 302 302 303 303 304 305 305 305 303 302 302 302 302 301 298 296
294 295 295 295 294 294 294 294 294 294 295 295 296 296 297 299 300 302 303 304 304 304 304 304 303 303 303 304 306 307 308 310 311 311 310 309 309 309 309 308 307 304 303
296 295 294 292 292 292 292 292 292 293 294 295 296 297 298 299 301 302 303 303 303 303 303 303 303 304 306 309 310 311 314 317 319 319 319 319 319 319 318 316 315 312 310
296 294 292 291 290 290 290 291 292 293 294 295 296 296 298 300 301 301 302 302 302 302 302 303 304 307 309 310 311 315 320 325 328 328 327 325 325 324 323 321 320 319 316
294 292 290 289 289 290 291 292 292 293 294 295 296 297 298 299 300 300 300 300 301 301 302 304 307 309 310 311 315 319 323 326 328 330 330 329 328 327 325 322 319 317 314
291 289 288 288 289 291 292 292 292 293 294 295 296 297 297 298 299 299 299 300 301 302 304 306 309 309 310 315 319 322 325 327 329 330 330 329 327 325 322 318 315 312 307
289 288 288 289 290 291 291 292 292 293 294 295 296 297 298 298 299 299 300 301 302 304 305 308 310 312 316 321 324 325 327 328 330 330 330 330 330 330 329 327 324 317 309
289 289 290 290 290 291 292 292 293 294 294 295 296 297 298 298 299 299 300 301 301 303 305 307 309 317 323 326 326 328 330 333 334 336 338 342 348 353 354 351 348 342 334
289 289 289 289 290 291 292 293 294 294 296 296 297 298 299 300 300 300 300 301 302 302 303 302 308 320 327 329 331 335 339 342 346 353 3 12 15 15 15 15 13 12 12
289 289 290 290 291 292 293 294 295 297 298 299 300 301 300 300 300 300 301 302 302 300 296 297 311 325 331 335 339 344 348 355 6 20 27 27 27 26 25 25 27 30 32
292 292 293 293 294 295 296 297 298 300 301 301 301 301 300 299 300 301 302 301 297 289 280 296 326 337 340 345 351 357 5 20 32 35 35 34 33 32 32 34 36 38 38
295 295 295 296 297 298 299 300 301 301 301 302 302 302 301 301 300 300 301 297 284 236 209 356 353 351 354 0 7 16 30 37 38 38 37 36 36 35 36 37 37 37 35
298 298 299 300 300 301 302 303 303 303 304 305 306 305 305 303 301 299 293 257 162 140 108 39 11 6 11 20 29 40 45 42 40 39 37 36 34 32 31 29 28 31 32
304 304 304 303 304 304 305 306 307 308 309 312 314 314 313 308 304 305 135 133 128 114 85 49 29 26 35 44 53 58 53 48 46 44 42 39 35 33 31 30 30 32 35
310 309 308 307 307 308 309 311 313 316 320 325 328 332 338 355 71 111 118 119 113 97 74 53 44 49 58 64 69 65 58 54 52 50 48 46 43 42 41 41 42 46 50
318 316 314 312 313 315 318 321 325 330 338 345 354 13 47 82 101 109 111 108 100 85 69 60 60 68 74 79 78 70 64 60 58 56 54 52 49 48 48 49 51 53 57
331 328 326 326 329 334 340 347 355 7 20 32 48 68 84 96 102 105 105 99 89 78 71 70 74 81 87 89 83 75 69 65 61 59 56 54 52 52 52 52 53 55 58
345 345 347 352 1 10 21 36 51 64 69 73 79 86 94 98 100 100 98 91 80 76 78 80 84 90 95 95 89 81 73 67 62 60 59 56 55 54 54 55 55 56 59
4 10 18 30 39 52 64 76 82 85 85 86 89 92 95 97 97 96 92 84 78 78 81 84 89 97 102 101 95 86 77 68 63 60 59 58 57 58 57 56 57 58 59
28 37 46 55 66 76 83 86 88 89 90 90 91 92 93 94 94 92 87 79 76 79 82 86 94 101 107 106 100 91 80 71 65 60 60 60 60 60 59 58 57 58 58
46 53 61 69 76 81 85 89 91 91 90 90 89 89 89 90 90 88 82 77 77 80 84 89 95 103 108 110 105 95 84 75 67 63 62 62 61 60 59 58 57 55 55
55 60 66 72 78 84 88 90 91 89 88 87 86 85 84 85 85 84 81 77 76 80 85 90 96 103 108 109 106 99 90 81 72 67 64 60 58 56 56 55 53 52 51
56 61 67 72 78 83 85 87 87 86 84 83 81 79 77 76 77 79 80 80 80 83 88 93 98 102 105 106 105 100 92 84 77 69 61 57 54 52 51 50 49 48 48
Height
5781 5778 5775 5772 5770 5767 5765 5763 5760 5757 5753 5749 5744 5740 5735 5729 5724 5718 5712 5706 5700 5694 5687 5680 5672 5665 5657 5649 5641 5632 5624 5616 5613 5609 5598 5589 5579 5571 5565 5559 5555 5551 5547
5773 5770 5767 5764 5762 5759 5756 5753 5749 5745 5741 5736 5732 5727 5721 5716 5710 5704 5698 5692 5686 5679 5672 5665 5657 5650 5642 5633 5625 5616 5607 5598 5591 5586 5579 5569 5560 5552 5547 5542 5538 5534 5531
5764 5761 5758 5755 5752 5749 5745 5742 5737 5733 5728 5723 5718 5713 5708 5702 5696 5690 5684 5678 5671 5664 5657 5650 5643 5635 5627 5619 5610 5600 5591 5581 5572 5565 5560 5552 5545 5538 5533 5530 5526 5522 5518
5754 5752 5749 5745 5741 5737 5734 5729 5725 5720 5715 5710 5704 5699 5694 5688 5682 5676 5670 5664 5657 5650 5643 5636 5629 5621 5614 5605 5596 5585 5576 5567 5559 5551 5545 5539 5534 5529 5525 5521 5518 5514 5510
5744 5741 5738 5734 5729 5725 5721 5716 5712 5707 5701 5696 5691 5685 5680 5675 5669 5664 5657 5651 5645 5638 5630 5622 5615 5607 5599 5591 5582 5573 5564 5556 5549 5542 5537 5532 5528 5523 5519 5516 5513 5509 5505
5732 5729 5725 5721 5717 5713 5708 5704 5699 5693 5688 5683 5678 5673 5668 5662 5657 5651 5645 5638 5632 5626 5619 5611 5603 5595 5587 5579 5571 5563 5555 5549 5543 5538 5533 5528 5524 5520 5516 5512 5509 5506 5502
5720 5716 5712 5708 5704 5700 5696 5691 5686 5680 5675 5670 5665 5660 5655 5650 5645 5639 5632 5626 5620 5614 5607 5600 5592 5585 5578 5571 5564 5557 5551 5545 5540 5535 5531 5526 5522 5518 5514 5510 5506 5503 5499
5707 5703 5699 5695 5691 5687 5682 5677 5673 5668 5663 5658 5653 5648 5643 5638 5633 5627 5621 5615 5608 5602 5596 5590 5584 5577 5571 5565 5560 5554 5549 5544 5539 5534 5529 5524 5520 5515 5511 5507 5504 5500 5497
5693 5689 5686 5682 5678 5673 5669 5664 5660 5655 5651 5646 5641 5636 5631 5626 5621 5615 5609 5603 5597 5591 5586 5581 5576 5571 5566 5561 5557 5552 5548 5543 5537 5532 5527 5522 5517 5513 5508 5505 5501 5498 5494
5680 5677 5673 5669 5664 5660 5656 5652 5648 5643 5639 5634 5629 5624 5619 5614 5608 5603 5598 5592 5587 5583 5578 5574 5570 5566 5562 5558 5554 5550 5546 5541 5535 5530 5525 5520 5515 5510 5506 5502 5497 5494 5491
5668 5664 5660 5656 5652 5648 5644 5640 5635 5631 5627 5622 5617 5612 5607 5602 5597 5592 5588 5584 5580 5576 5573 5569 5565 5562 5559 5556 5552 5548 5543 5538 5533 5528 5523 5518 5514 5509 5505 5500 5496 5491 5488
5656 5652 5648 5644 5640 5636 5632 5628 5624 5619 5615 5610 5605 5600 5596 5591 5587 5583 5580 5577 5574 5570 5567 5565 5562 5560 5558 5555 5551 5546 5542 5536 5531 5526 5522 5518 5514 5510 5505 5501 5496 5491 5488
5644 5641 5637 5633 5629 5625 5621 5616 5612 5607 5603 5598 5594 5590 5586 5583 5580 5577 5574 5571 5568 5565 5563 5562 5560 5559 5556 5553 5550 5545 5540 5536 5531 5527 5524 5520 5516 5512 5507 5503 5498 5494 5490
5634 5630 5626 5622 5618 5614 5609 5605 5601 5596 5592 5588 5585 5581 5578 5575 5573 5570 5567 5565 5563 5562 5561 5560 5559 5558 5555 5552 5549 5545 5540 5536 5533 5529 5526 5522 5518 5514 5510 5506 5502 5498 5494
5624 5620 5616 5611 5607 5603 5599 5595 5591 5588 5584 5581 5578 5574 5571 5568 5566 5564 5562 5561 5560 5560 5560 5560 5559 5557 5555 5552 5549 5545 5541 5538 5535 5532 5528 5525 5521 5517 5513 5509 5505 5501 5498
5615 5610 5606 5602 5598 5594 5591 5588 5584 5581 5577 5574 5571 5568 5565 5563 5561 5559 5558 5558 5559 5559 5560 5560 5559 5557 5555 5552 5550 5547 5544 5541 5538 5535 5531 5528 5524 5520 5516 5513 5509 5505 5501
5606 5602 5597 5594 5590 5587 5584 5581 5578 5575 5571 5568 5565 5563 5560 5558 5557 5557 5557 5558 5559 5560 5561 5560 5559 5557 5556 5554 5552 5549 5547 5544 5541 5538 5534 5531 5528 5524 5520 5516 5512 5508 5505
5599 5595 5591 5587 5584 5581 5579 5576 5573 5570 5568 5565 5563 5560 5558 5557 5556 5557 5558 5559 5561 5562 5562 5561 5560 5559 5557 5556 5554 5553 5551 5548 5545 5542 5539 5536 5533 5529 5525 5521 5517 5513 5510
5593 5589 5585 5582 5579 5576 5574 5572 5570 5568 5566 5564 5562 5560 5559 5558 5558 5559 5561 5562 5563 5563 5563 5562 5561 5560 5560 5559 5558 5557 5555 5553 5551 5548 5545 5542 5539 5535 5532 5528 5524 5520 5517
5588 5584 5580 5578 5575 5573 5572 5570 5569 5567 5566 5564 5563 5562 5561 5561 5562 5563 5564 5565 5566 5566 5565 5564 5564 5563 5563 5563 5562 5561 5560 5558 5556 5554 5552 5549 5546 5543 5539 5536 5532 5528 5525
5585 5581 5578 5576 5574 5572 5571 5570 5569 5568 5567 5566 5565 5565 5565 5565 5566 5567 5568 5568 5568 5568 5568 5567 5567 5567 5567 5567 5566 5566 5565 5564 5562 5560 5558 5555 5553 5550 5547 5544 5541 5537 5534
5583 5580 5578 5576 5575 5573 5572 5571 5571 5570 5570 5569 5569 5569 5570 5570 5571 5571 5572 5572 5572 5571 5571 5571 5570 5570 5571 5571 5571 5571 5570 5569 5567 5566 5564 5562 5559 5557 5554 5552 5549 5547 5544
5585 5582 5580 5578 5577 5576 5575 5575 5574 5574 5574 5574 5574 5574 5574 5575 5575 5576 5576 5576 5575 5575 5575 5574 5574 5574 5575 5575 5575 5575 5575 5574 5573 5571 5570 5568 5566 5564 5562 5560 5558 5555 5553
5588 5585 5583 5582 5580 5580 5579 5579 5579 5578 5578 5579 5579 5579 5579 5579 5580 5580 5580 5580 5580 5579 5579 5579 5578 5579 5579 5579 5580 5580 5579 5579 5578 5577 5576 5574 5572 5571 5569 5567 5565 5563 5560
5593 5590 5588 5587 5585 5585 5584 5584 5584 5584 5584 5584 5584 5584 5584 5584 5584 5584 5584 5584 5584 5583 5583 5583 5583 5583 5583 5584 5584 5584 5584 5584 5583 5583 5582 5580 5579 5577 5575 5573 5572 5570 5567
5600 5597 5595 5593 5591 5591 5590 5590 5590 5590 5589 5589 5589 5589 5589 5588 5588 5588 5588 5588 5588 5587 5587 5587 5587 5588 5588 5588 5588 5589 5589 5589 5588 5588 5587 5586 5584 5582 5581 5579 5577 5575 5573